AI7R Weather Reports


Display with metric or nautical units.
time (UTC)temp
F
wind
direction
speed
MPH
gust
MPH
rain 1hr
in
rain 24hr
in
rain mn
in
humidity
%
barometer
mb
20260506174500 58 248 3.0 8.0 0.00 0.10 0.00 43 1011.4
20260506173001 57 269 2.0 7.0 0.00 0.10 0.00 45 1011.4
20260506170005 56 316 1.0 6.0 0.00 0.10 0.00 48 1011.3
20260506164500 55 236 1.0 5.0 0.00 0.18 0.00 48 1011.3
20260506163000 54 292 1.0 6.0 0.00 0.18 0.00 47 1011.2
20260506161500 53 220 1.0 5.0 0.00 0.18 0.00 46 1011.1
20260506160004 52 257 0.0 5.0 0.00 0.18 0.00 50 1011.1
20260506154500 51 211 1.0 6.0 0.00 0.19 0.00 52 1011.0
20260506153000 49 177 0.0 4.0 0.00 0.19 0.00 55 1011.0
20260506150003 47 209 0.0 2.0 0.00 0.19 0.00 60 1011.0
20260506144500 46 355 0.0 1.0 0.00 0.20 0.00 62 1010.8
20260506143000 45 351 0.0 0.0 0.00 0.20 0.00 65 1010.9
20260506141500 43 351 0.0 0.0 0.00 0.20 0.00 66 1010.8
20260506140004 42 351 0.0 0.0 0.00 0.20 0.00 66 1010.7
20260506134500 42 351 0.0 0.0 0.00 0.20 0.00 69 1010.5
20260506133000 41 351 0.0 0.0 0.00 0.20 0.00 68 1010.4
20260506131502 41 355 0.0 0.0 0.00 0.20 0.00 69 1010.2
20260506130005 40 355 0.0 0.0 0.00 0.20 0.00 69 1009.9
20260506124500 40 351 0.0 0.0 0.00 0.20 0.00 69 1009.7
20260506123000 40 351 0.0 0.0 0.00 0.20 0.00 68 1009.5
20260506121500 40 351 0.0 0.0 0.00 0.20 0.00 67 1009.5
20260506120003 41 351 0.0 0.0 0.00 0.20 0.00 67 1009.4